Find Starlink 11618

NORAD ID: 63185 Int'l Des: 2025-048 Owner: SPXS Country: US Constellation: starlink operational
LEOCIRCULAR

Current View

Loading 3D Globe...

About Starlink 11618

Starlink 11618 (NORAD 63185) is a starlink constellation satellite (v2 mini d2c) launched Mar 13, 2025 by SPXS of US. It operates in LEO, CIRCULAR orbit with a mass of 960.00 kg.

About Starlink 11618

Description loading...

Upcoming Passes

Passes for default location (London). Set your location on the main map for personalized predictions.

Altitude History

Loading altitude history...

Two-Line Element Set

1 63185U 25048C 26163.23866893 .00241144 00000-0 18234-2 0 9991
2 63185 43.0013 109.7728 0002377 234.7440 125.3205 15.70909243 73382
Epoch: Jun 12, 2026 • Age: 27 hours

Current Status

Altitude 361.1 km
Velocity 7.69 km/s
Sub-Earth Point -26.79°S, 33.41°E
Launch Date Mar 13, 2025
Age 1.2 years
Type internet

Technical Details

Classification Payload
Mass 960.00 kg
Dry Mass 910.00 kg
Total Mass 960.00 kg
Length 0.30 m
Diameter 4.10 m
Span 29.00 m
Shape Box + pan
Manufacturer SPXS
Bus Type Starlink V2MD
Phase Status In Orbit
Owner/State SPXS/US

Most Searched